Flag for Argentina

Past Weather in La Plata, Buenos Aires, Argentina — Yesterday and Last 2 Weeks

Now
41 °F

Overcast.


Feels Like: 36 °F
Forecast: 54 / 42 °F
Wind: 8 mph from Southeast

Location: Ezeiza Aerodrome

Current Time: Jul 8, 2020 at 5:51:44 am

Latest Report: Jul 8, 2020 at 4:00 am


Visibility: 6 mi

Pressure: 30.18 "Hg

Humidity: 92%

Dew Point: 39 °F

Location of La PlataLocation

Past Weather in La Plata — Graph

°F

La Plata Temperature Yesterday

Maximum temperature yesterday: 49 °F (at 4:00 pm)
Minimum temperature yesterday: 33 °F (at 3:00 am)
Average temperature yesterday: 41 °F

High & Low Weather Summary for the Past Weeks

 TemperatureHumidityPressure
High60 °F (Jun 27, 3:00 pm)100% (Jun 23, 5:00 am)30.30 "Hg (Jun 23, 5:00 am)
Low32 °F (Jul 6, 8:00 am)30% (Jun 27, 3:00 pm)29.66 "Hg (Jun 23, 7:00 am)
Average48 °F81%30.04 "Hg
* Reported Jun 23 4:00 am — Jul 8 4:00 am, La Plata. Weather by CustomWeather, © 2020

Note: Actual official high and low records may vary slightly from our data, if they occured in-between our weather recording intervals... More about our weather records

La Plata Weather History for the Previous 24 Hours

Scroll right to see more
 ConditionsComfort  
Time TempWeatherWind HumidityBarometerVisibility
4:00 am
Wed, Jul 8
41 °FOvercast.8 mph92%30.18 "Hg6 mi
3:00 am41 °FOvercast.1 mph92%30.21 "Hg6 mi
2:00 am42 °FOvercast.3 mph89%30.23 "Hg6 mi
1:00 am42 °FOvercast.8 mph88%30.23 "Hg6 mi
12:00 am42 °FOvercast.3 mph88%30.23 "Hg6 mi
11:00 pm
Tue, Jul 7
41 °FOvercast.6 mph84%30.22 "Hg6 mi
10:00 pm42 °FOvercast.5 mph85%30.22 "Hg6 mi
9:00 pm42 °FOvercast.3 mph86%30.24 "Hg6 mi
8:00 pm44 °FPassing clouds.5 mph84%30.23 "Hg6 mi
7:00 pm44 °FOvercast.7 mph82%30.22 "Hg6 mi
6:00 pm46 °FOvercast.7 mph76%30.21 "Hg6 mi
5:00 pm47 °FOvercast.12 mph70%30.20 "Hg6 mi
4:00 pm49 °FOvercast.8 mph64%30.21 "Hg6 mi
3:00 pm49 °FOvercast.9 mph66%30.22 "Hg6 mi
2:00 pm49 °FOvercast.12 mph69%30.24 "Hg6 mi
1:00 pm49 °FOvercast.10 mph69%30.26 "Hg6 mi
12:00 pm48 °FOvercast.10 mph74%30.26 "Hg6 mi
11:00 am46 °FOvercast.9 mph78%30.27 "Hg6 mi
10:00 am42 °FOvercast.7 mph87%30.27 "Hg6 mi
9:00 am38 °FOvercast.6 mph93%30.27 "Hg6 mi
8:00 am36 °FOvercast.3 mph100%30.27 "Hg6 mi
7:00 am36 °FFog.3 mph100%30.26 "Hg6 mi
6:00 am36 °FFog.5 mph98%30.25 "Hg6 mi
5:00 am35 °FFog.2 mph98%30.27 "Hg5 mi
Weather by CustomWeather, © 2020

See weather overview